Satellite: MET-3/5
Catalog number: 21655
Epoch time:      08275.93004916
Element set:    0602
Inclination:      082.5573 deg
RA of node:       028.9554 deg
Eccentricity:    0.0014560
Arg of perigee:   104.7804 deg
Mean anomaly:     255.4932 deg
Mean motion:   13.17016501 rev/day
Decay rate:        5.1e-07 rev/day^2
Epoch rev:           82363
Checksum:              286

Satellite: MET-2/21
Catalog number: 22782
Epoch time:      08276.45151179
Element set:     264
Inclination:      082.5514 deg
RA of node:       026.4706 deg
Eccentricity:    0.0022386
Arg of perigee:   353.5463 deg
Mean anomaly:     006.5405 deg
Mean motion:   13.83632509 rev/day
Decay rate:        8.2e-07 rev/day^2
Epoch rev:           76196
Checksum:              304

Satellite: OKEAN-4
Catalog number: 23317
Epoch time:      08275.89272906
Element set:    0710
Inclination:      082.5395 deg
RA of node:       215.4930 deg
Eccentricity:    0.0023341
Arg of perigee:   132.1682 deg
Mean anomaly:     228.1524 deg
Mean motion:   14.82638441 rev/day
Decay rate:       2.18e-06 rev/day^2
Epoch rev:           75409
Checksum:              296

Satellite: NOAA-14
Catalog number: 23455
Epoch time:      08275.70802961
Element set:    0330
Inclination:      098.9384 deg
RA of node:       347.9633 deg
Eccentricity:    0.0009298
Arg of perigee:   197.7742 deg
Mean anomaly:     162.3115 deg
Mean motion:   14.13747424 rev/day
Decay rate:      -2.26e-06 rev/day^2
Epoch rev:           70940
Checksum:              323

Satellite: NOAA-15
Catalog number: 25338
Epoch time:      08276.03568114
Element set:     645
Inclination:      098.5641 deg
RA of node:       265.2278 deg
Eccentricity:    0.0011720
Arg of perigee:   090.1425 deg
Mean anomaly:     270.1095 deg
Mean motion:   14.24725637 rev/day
Decay rate:      -1.59e-06 rev/day^2
Epoch rev:           54001
Checksum:              291

Satellite: RESURS
Catalog number: 25394
Epoch time:      08276.74204131
Element set:      36
Inclination:      098.3763 deg
RA of node:       315.7434 deg
Eccentricity:    0.0000514
Arg of perigee:   257.1187 deg
Mean anomaly:     102.9935 deg
Mean motion:   14.24171610 rev/day
Decay rate:        4.0e-08 rev/day^2
Epoch rev:           53175
Checksum:              273

Satellite: FENGYUN1
Catalog number: 25730
Epoch time:      08275.95446316
Element set:    0633
Inclination:      098.7324 deg
RA of node:       248.1659 deg
Eccentricity:    0.0019508
Arg of perigee:   225.1605 deg
Mean anomaly:     134.7979 deg
Mean motion:   14.07795355 rev/day
Decay rate:       5.03e-06 rev/day^2
Epoch rev:           48398
Checksum:              337

Satellite: OKEAN-0
Catalog number: 25860
Epoch time:      08275.86386985
Element set:    0488
Inclination:      097.7608 deg
RA of node:       261.7478 deg
Eccentricity:    0.0000806
Arg of perigee:   039.8434 deg
Mean anomaly:     320.2832 deg
Mean motion:   14.73537706 rev/day
Decay rate:        2.5e-07 rev/day^2
Epoch rev:           49510
Checksum:              333

Satellite: NOAA-16
Catalog number: 26536
Epoch time:      08276.02775357
Element set:     119
Inclination:      099.1663 deg
RA of node:       267.5961 deg
Eccentricity:    0.0009748
Arg of perigee:   287.6877 deg
Mean anomaly:     072.3216 deg
Mean motion:   14.12499220 rev/day
Decay rate:       2.33e-06 rev/day^2
Epoch rev:           41385
Checksum:              336

Satellite: NOAA-17
Catalog number: 27453
Epoch time:      08275.71460550
Element set:    0116
Inclination:      098.5238 deg
RA of node:       337.1976 deg
Eccentricity:    0.0012407
Arg of perigee:   154.0626 deg
Mean anomaly:     206.1194 deg
Mean motion:   14.24006312 rev/day
Decay rate:       1.25e-06 rev/day^2
Epoch rev:           32596
Checksum:              285

Satellite: NOAA-18
Catalog number: 28654
Epoch time:      08276.04385519
Element set:     602
Inclination:      098.8751 deg
RA of node:       215.6920 deg
Eccentricity:    0.0014709
Arg of perigee:   015.4694 deg
Mean anomaly:     344.6971 deg
Mean motion:   14.11196725 rev/day
Decay rate:       2.31e-06 rev/day^2
Epoch rev:           17354
Checksum:              320

/EX
SB KEPS @ AMSAT  $ORB08276.M
Orbital Elements  08276.MISC

HR AMSAT ORBITAL ELEMENTS FOR MANNED AND MISCELLANEOUS SATELLITES
FROM WA5QGD FORT WORTH,TX October 2, 2008
Send Subscribe/unsubscribe to KEPS at 
http://www.amsat.org/mailman/listinfo/keps
BID: ORB08276.M
TO ALL RADIO AMATEURS BT

Satellite: HUBBLE
Catalog number: 20580
Epoch time:      08275.57325945
Element set:    0241
Inclination:      028.4702 deg
RA of node:       349.3232 deg
Eccentricity:    0.0003700
Arg of perigee:   075.8086 deg
Mean anomaly:     284.2915 deg
Mean motion:   15.00411546 rev/day
Decay rate:       2.93e-06 rev/day^2
Epoch rev:           81097
Checksum:              283

Satellite: PO-34
Catalog number: 25520
Epoch time:      08275.95565774
Element set:    0103
Inclination:      028.4597 deg
RA of node:       183.9558 deg
Eccentricity:    0.0005078
Arg of perigee:   009.4757 deg
Mean anomaly:     350.5924 deg
Mean motion:   15.17234552 rev/day
Decay rate:       3.74e-06 rev/day^2
Epoch rev:           54939
Checksum:              338

